Location: Gälforsberget
(66.6500°N, 22.4167°E)
Time: 09:32:26
(UTC+00:00)

Cosmos 292 Rocket - Pass Details

Date: 11 April 2026
Orbit: 662 x 682 km, 74.0° (Epoch: 19 May)

Event Time Altitude Azimuth Distance (km) Brightness Sun altitude
Rises 22:04:56 0° 313° (NW) 3,054 7.9 -14.6°
Reaches altitude 10° 22:07:15 10° 316° (NW) 2,138 7.1 -14.6°
Maximum altitude 22:12:04 70° 40° (NE) 734 4.0 -14.7°
Drops below altitude 10° 22:16:52 10° 125° (SE) 2,132 5.9 -14.7°
Enters shadow 22:16:58 10° 125° (SE) 2,170 6.0 -14.7°
